User: anonymous
Location: Chenango Forks
(42.2242°N, 75.8278°W)
Time: 22:57:49
(UTC-04:00)
Language:

Okean 3 Rocket - Orbit

View from above orbital plane
View from above orbital plane
View from above satellite
View from above satellite

Ground track
Ground track

The orbit data is extracted from the following two-line orbital elements,

1 21398U 91039B   14209.83196698  .00000197  00000-0  23276-4 0  8025
2 21398 082.5246 127.4144 0022374 041.6507 015.4911 14.79179463248013
Epoch (UTC): 28 July 2014 19:58:01
Eccentricity: 0.0022374
inclination: 82.5246°
perigee height: 616 km
apogee height: 647 km
right ascension of ascending node: 127.4144°
argument of perigee: 41.6507°
revolutions per day: 14.79179463
mean anomaly at epoch: 15.4911°
orbit number at epoch: 24801

The dashed part of the orbit path shows where the satellite is in the earth's shadow,  

DLR